Regional Weather Roundup
Issued by NWS Goodland, KS

Home | Current Version | Previous Version | Graphics & Text | Print | Product List | Glossary On
Versions: 1 2 3 4 5 6 7 8 9 10 11 12 13 14 15 16 17 18 19 20 21 22 23 24 25 26 27 28 29 30 31 32 33 34 35 36 37 38 39 40 41 42 43 44 45 46 47 48 49 50
000
ASUS43 KGLD 101808
RWRGLD

GOODLAND FORECAST AREA HOURLY WEATHER ROUNDUP
NATIONAL WEATHER SERVICE GOODLAND KS
1100 AM MST WED FEB 10 2016

...OFFICIAL OBSERVATIONS...

CITY           SKY/WX    TMP DP  RH WIND       PRES   REMARKS
GOODLAND KS    SUNNY     54  27  35 NW10      30.08S
HILL CITY KS   SUNNY     53  28  38 W13       29.99S
IMPERIAL NEB   SUNNY     46  27  47 W18       30.01F
MCCOOK NEB     SUNNY     46  28  49 W17       29.98F
AKRON CO       SUNNY     46  27  47 SW15      30.09F
BURLINGTON CO  SUNNY     50  24  36 W17       30.09F
LIMON CO       SUNNY     46  23  40 W14       30.17F
$$

...UNOFFICIAL OBSERVATIONS...

CITY           SKY/WX    TMP DP  RH WIND       PRES   REMARKS
COLBY KS       SUNNY     46  32  57 W13       30.05S
GOVE KS          N/A     56  32  40 MISG        N/A
LENORA KS        N/A     48  32  54 MISG        N/A
NORTON KS      SUNNY     45  27  49 W16       29.95F
SHARON SPRINGS   N/A     58  33  39 NW12        N/A
KIT CARSON CO    N/A     59  29  32 MISG        N/A
YUMA CO          N/A     47  30  51 NW12        N/A
$$



USA.gov is the U.S. government's official web portal to all federal, state and local government web resources and services.